Location: G?bice
(51.9739°N, 19.2698°E)
Time: 00:50:03
(UTC+00:00)

Daily predictions for brighter satellites

Satellite Brightness Start Highest point End
(mag) Time Altitude Azimuth Time Altitude Azimuth Time Altitude Azimuth
STARLINK-1212 2.9 00:00:39 10° WNW 00:03:41 51° SSW 00:06:43 10° SE
STARLINK-1105 2.9 00:01:07 10° WNW 00:04:09 51° SSW 00:07:10 10° SE
STARLINK-1209 3.2 00:01:23 10° W 00:04:23 40° SSW 00:06:56 13° SE
STARLINK-1247 2.9 00:02:02 10° W 00:05:05 51° SSW 00:08:07 10° SE
ATLAS CENTAUR R/B 1.1 00:03:10 10° WNW 00:05:29 83° SSW 00:10:08 10° ESE
STARLINK-1227 2.9 00:02:30 10° W 00:05:31 50° SSW 00:08:31 10° SE
STARLINK-1208 3.5 00:01:29 10° WNW 00:05:39 85° SSW 00:09:48 10° ESE
STARLINK-1226 3.0 00:03:20 10° W 00:06:23 50° SSW 00:09:25 10° SE
STARLINK-1215 3.0 00:04:17 10° W 00:07:20 49° SSW 00:10:22 10° SE
STARLINK-1225 3.8 00:03:43 10° W 00:07:53 76° N 00:12:02 10° E
STARLINK-1217 3.0 00:06:03 10° W 00:09:06 48° SSW 00:12:07 10° SE
CZ-4C R/B 4.4 00:08:07 10° ESE 00:09:37 11° ESE 00:11:11 10° E
STARLINK-1229 3.0 00:06:59 10° W 00:10:00 47° SSW 00:13:02 10° SE
GEOS 3 Rocket 4.4 00:07:39 21° SSW 00:10:15 33° WSW 00:15:00 10° WNW
STARLINK-1271 3.5 00:06:29 10° WNW 00:10:39 82° SSW 00:14:48 10° ESE
STARLINK-1270 3.0 00:07:51 10° W 00:10:52 47° SSW 00:13:53 10° SE
Cosmos 2058 Rocket 3.6 00:07:08 10° NNW 00:11:21 45° W 00:13:46 23° SSW
Meteor 1-29 3.8 00:08:40 10° N 00:11:52 38° WNW 00:13:32 22° WSW
Lacrosse 4 Rocket 3.9 00:08:19 10° NNW 00:12:04 26° NE 00:15:44 10° E
STARLINK-1189 3.1 00:09:41 10° W 00:12:42 46° SSW 00:15:43 10° SE
STARLINK-1230 3.8 00:08:42 10° W 00:12:51 76° N 00:17:01 10° E
STARLINK-1188 3.1 00:10:34 10° W 00:13:35 45° SSW 00:16:36 10° SE
Cosmos 2228 4.4 00:10:15 10° NW 00:13:41 24° W 00:15:32 18° SW
STARLINK-1235 3.3 00:11:18 10° W 00:14:12 38° SSW 00:17:07 10° SE
STARLINK-1187 3.2 00:11:42 10° W 00:14:39 41° SSW 00:17:36 10° SE
STARLINK-1154 3.5 00:11:28 10° WNW 00:15:38 79° SSW 00:19:46 10° ESE
SJ 16-02 2.2 00:11:24 10° NNW 00:15:45 51° ENE 00:20:04 10° SE
STARLINK-1191 3.1 00:13:03 10° W 00:16:02 43° SSW 00:19:00 10° SE
COSMOS 2455 2.9 00:11:40 19° SW 00:16:10 85° NW 00:22:14 10° NE
STARLINK-1221 3.1 00:13:56 10° W 00:16:54 43° SSW 00:19:52 10° SE
STARLINK-1222 3.1 00:14:49 10° W 00:17:47 42° SSW 00:20:46 10° SE
STARLINK-1243 3.8 00:13:41 10° W 00:17:51 76° N 00:22:00 10° E
STARLINK-1214 3.1 00:15:44 10° W 00:18:42 42° SSW 00:21:39 10° SE
Meteor 2-10 Rocket 4.1 00:13:24 10° N 00:18:45 58° ENE 00:23:51 10° SSE
Starlink 7 placeholder 2.8 00:19:27 32° ESE 00:19:27 32° ESE 00:20:55 10° E
STARLINK-1197 3.5 00:16:27 10° WNW 00:20:36 76° SSW 00:24:44 10° ESE
SL-14 R/B 3.5 00:18:39 24° SSW 00:20:48 57° WNW 00:24:38 10° N
STARLINK-1236 3.8 00:18:40 10° W 00:22:50 76° N 00:27:00 10° E
Cosmos 1300 3.3 00:19:32 10° NNW 00:23:09 40° W 00:25:04 23° SSW
Okean 1-7 Rocket 4.1 00:22:03 21° SW 00:24:51 50° WNW 00:29:15 10° N
Cosmos 1174 3.6 00:23:33 22° SW 00:25:30 68° NW 00:29:21 10° NE
STARLINK-1198 3.5 00:21:24 10° WNW 00:25:33 74° SSW 00:29:41 10° ESE
Cosmos 921 Rocket 2.9 00:23:34 22° SSW 00:26:18 84° ESE 00:30:39 10° NNE
BREEZE M DEB (TANK) 2.6 00:26:49 28° SW 00:27:25 33° SSW 00:30:46 10° SE
STARLINK-1199 3.5 00:26:25 10° WNW 00:30:33 70° SSW 00:34:41 10° ESE
Cosmos 1626 Rocket 3.5 00:29:36 19° S 00:32:36 87° W 00:36:59 10° N
Cosmos 2219 3.1 00:26:56 10° NNW 00:32:39 78° WSW 00:38:16 10° SSE
STARLINK-1269 3.8 00:28:38 10° W 00:32:47 78° N 00:36:57 10° E
STARLINK-1210 3.5 00:31:23 10° WNW 00:35:31 67° SSW 00:39:37 10° ESE
Cosmos 1626 3.0 00:34:31 19° SW 00:36:40 36° WNW 00:40:10 10° N
STARLINK-1200 3.7 00:33:38 10° W 00:37:48 79° N 00:41:57 10° E
STARLINK-60 3.1 00:36:27 22° SW 00:38:16 56° SSE 00:41:26 10° ENE
STARLINK-1219 3.5 00:36:22 10° WNW 00:40:29 64° SSW 00:44:35 10° ESE
Nadezhda 1 Rocket 4.2 00:34:34 10° NNW 00:40:34 58° W 00:45:52 14° SSW
STARLINK-1192 3.7 00:38:37 10° W 00:42:47 80° N 00:46:57 10° E
FALCON 9 R/B 4.3 00:38:26 15° SW 00:44:18 32° SSE 01:04:06 10° ESE
STARLINK-1211 3.6 00:41:20 10° WNW 00:45:26 61° SSW 00:49:32 10° SE
MOZ.5/SAFIR/RUBIN 5/SL-8 4.4 00:44:15 17° SSW 00:47:25 39° W 00:51:46 10° NNW
UNK 4.0 00:44:00 15° S 00:47:38 50° W 00:52:08 10° NNW
STARLINK-1244 3.7 00:43:35 10° W 00:47:45 81° N 00:51:55 10° E
Cosmos 2297 Rocket 2.2 00:42:38 10° NNW 00:48:18 73° WSW 00:53:55 10° SSE
AQUA 4.0 00:44:17 10° NNE 00:49:04 73° ESE 00:53:18 13° S
Cosmos 220 Rocket 4.0 00:46:16 17° SSW 00:49:35 83° WNW 00:54:03 10° NNE
STARLINK-1245 3.6 00:46:20 10° WNW 00:50:25 58° SSW 00:54:30 10° SE
ERBS 3.9 00:47:21 10° WNW 00:50:30 37° NNE 00:53:39 10° E
CZ-4B R/B 3.6 00:45:25 10° NNE 00:50:33 78° ESE 00:55:16 13° SSW
Cosmos 1812 Rocket 3.7 00:46:12 10° NNW 00:50:38 59° W 00:54:29 13° S
ERS-2 3.9 00:48:27 10° SE 00:51:46 33° ENE 00:55:06 10° N
Cosmos 2082 4.0 00:46:13 10° NNW 00:51:55 70° ENE 00:57:32 10° SE
STARLINK-1138 3.7 00:48:34 10° W 00:52:44 82° N 00:56:54 10° E
SL-4 R/B 2.4 00:49:12 13° WSW 00:53:28 63° SSE 00:58:05 10° E
Cosmos 1437 3.7 00:52:48 18° SW 00:54:31 31° WNW 00:57:17 10° N
STARLINK-1233 3.7 00:51:18 10° WNW 00:55:22 55° SSW 00:59:26 10° SE
STARLINK-1203 3.7 00:51:10 10° WNW 00:55:23 84° N 00:59:36 10° E
Cosmos 990 Rocket 4.0 00:50:43 10° NNW 00:56:01 83° WSW 01:01:17 10° SSE
CBERS-1 4.4 00:51:51 10° NNE 00:56:57 62° ESE 01:02:01 10° S
STARLINK-1143 3.7 00:53:33 10° WNW 00:57:43 84° N 01:01:53 10° E
STARLINK-1204 3.7 00:56:18 10° WNW 01:00:21 52° SSW 01:04:23 10° SE
ATLAS CENTAUR R/B 2.0 00:56:56 11° WSW 01:00:55 49° NW 01:04:52 10° NE
SL-16 R/B 2.9 00:56:01 12° S 01:01:30 45° W 01:07:24 10° NNW
Alouette 2 Rocket 4.3 00:54:41 10° NNW 01:01:53 75° W 01:06:29 10° S
STARLINK-1241 3.7 00:58:32 10° WNW 01:02:42 86° NNE 01:06:52 10° E
Cosmos 2263 Rocket 4.3 00:58:42 10° NNW 01:03:40 31° NE 01:08:35 10° ESE
BREEZE-M R/B 3.3 01:01:07 14° SW 01:04:08 33° SSE 01:06:41 10° E
NOSS 3-4 (A) 4.2 00:58:18 10° WSW 01:04:14 52° NNW 01:10:41 10° NE
NOSS 3-4 (C) 4.2 00:58:23 10° WSW 01:04:19 52° NNW 01:10:48 10° NE
FALCON 9 DEB 3.9 01:02:07 16° SSW 01:04:25 38° SSE 01:07:40 10° E
STARLINK-1238 3.8 01:01:16 10° WNW 01:05:17 50° SSW 01:09:18 10° SE
Cosmos 1602 Rocket 3.8 01:01:58 15° SSW 01:05:27 54° WNW 01:09:43 10° N
Cosmos 1825 Rocket 3.8 01:01:20 10° S 01:05:37 66° E 01:09:54 10° NNE
Cosmos 1455 2.2 01:01:56 10° NNW 01:05:40 62° W 01:09:21 10° S
STARLINK-29 3.2 01:04:34 16° SW 01:06:56 52° SSE 01:10:03 10° ENE
ATLAS 3B R/B 3.8 01:02:03 10° WNW 01:07:18 24° WSW 01:12:40 10° SSW
STARLINK-1239 3.6 01:03:31 10° WNW 01:07:41 88° NNE 01:11:51 10° ESE
IRS-1D 3.7 01:04:23 10° NNE 01:09:47 78° ESE 01:15:05 10° SSW
STARLINK-1201 3.8 01:06:16 10° WNW 01:10:16 47° SSW 01:14:15 10° SE
BREEZE-M DEB (TANK) 3.6 01:09:30 14° S 01:10:27 17° SE 01:12:22 10° E
Meteor 1-28 Rocket 4.2 01:07:30 10° SE 01:11:09 48° ENE 01:14:49 10° N
GP-B 3.1 01:07:07 10° N 01:11:34 75° W 01:16:00 10° S
STARLINK-1240 3.6 01:08:30 10° WNW 01:12:41 90° NE 01:16:50 10° ESE
BREEZE-M DEB (TANK) 1.3 01:12:38 11° WSW 01:14:52 48° S 01:17:20 10° E
STARLINK-1206 3.9 01:11:16 10° WNW 01:15:13 44° SSW 01:19:10 10° SE
Cosmos-2242 3.0 01:10:59 10° NNW 01:15:16 72° W 01:19:30 10° S
COBE Rocket 4.4 01:11:53 10° SSE 01:16:46 64° ENE 01:21:49 10° N
Cosmos 2221 4.4 01:13:08 10° N 01:17:02 32° ENE 01:20:56 10° SE
Cosmos 1400 Rocket 3.5 01:13:31 10° N 01:17:37 60° ENE 01:21:41 10° SSE
STARLINK-1216 3.6 01:13:29 10° WNW 01:17:39 88° SSW 01:21:49 10° ESE
STARLINK-1205 4.0 01:16:15 10° WNW 01:20:11 42° SSW 01:24:05 10° SE
Cosmos 2181 Rocket 4.1 01:15:23 10° NNW 01:21:46 70° W 01:28:09 10° S
STARLINK-1390 4.5 01:19:27 12° SSW 01:22:11 28° SE 01:25:16 10° E
STARLINK-1237 3.6 01:18:28 10° WNW 01:22:38 86° SSW 01:26:48 10° ESE
SL-08 R/B 3.3 01:18:04 10° SSE 01:22:46 83° WSW 01:27:27 10° NNW
RESURS DK-1 3.3 01:19:18 10° WSW 01:23:12 39° NW 01:27:07 10° NNE
Cosmos 2227 Rocket 2.5 01:18:20 10° NW 01:23:46 48° WSW 01:29:11 10° S
IRS-P3 4.3 01:19:15 10° NNE 01:24:36 75° ESE 01:29:56 10° S
STARLINK-1218 4.0 01:21:14 10° W 01:25:07 39° SSW 01:28:59 10° SE
CZ-2D R/B 2.6 01:20:10 10° N 01:25:13 47° WNW 01:30:12 10° SW
STARLINK-1202 3.6 01:23:27 10° WNW 01:27:38 83° SSW 01:31:47 10° ESE
ADEOS II 2.2 01:22:46 10° NNE 01:28:05 86° ESE 01:33:21 10° SSW
CZ-4C R/B 4.2 01:24:55 10° SE 01:28:23 47° ENE 01:31:55 10° N
Cosmos 1763 Rocket 3.6 01:24:00 10° SSW 01:29:07 76° ESE 01:34:13 10° NNE
Cosmos 1697 Rocket 3.3 01:23:56 10° S 01:29:26 54° ESE 01:34:57 10° NE
STARLINK-1254 4.1 01:26:15 10° W 01:30:04 37° SSW 01:33:55 10° SE
Cosmos 1703 3.3 01:27:01 10° SSW 01:30:58 75° W 01:34:57 10° N
ATLAS 2AS CENTAUR R/B 3.9 01:25:56 10° W 01:33:38 47° NNW 01:41:07 10° NE
Resurs 1-4 Rocket 2.9 01:30:01 10° N 01:34:55 39° WNW 01:39:49 10° SW
STARLINK-1231 4.2 01:31:16 10° W 01:35:03 35° SW 01:38:50 10° SSE
Cosmos 1315 Rocket 4.4 01:33:49 10° N 01:37:30 37° ENE 01:41:10 10° SE
STARLINK-1246 3.6 01:33:24 10° WNW 01:37:34 77° SSW 01:41:43 10° ESE
STARLINK-1232 4.3 01:36:16 10° W 01:40:00 33° SW 01:43:44 10° SSE
CZ-2C R/B 4.4 01:36:54 10° NNE 01:40:12 30° E 01:43:31 10° SSE
ARIANE 5 R/B 2.8 01:35:07 10° NNE 01:40:13 71° ESE 01:45:14 10° S
NPP 4.4 01:37:19 10° N 01:42:21 41° WNW 01:47:21 10° SW
STARLINK-1224 3.6 01:38:23 10° WNW 01:42:32 75° SSW 01:46:41 10° ESE
STARLINK-52 2.9 01:40:08 10° WSW 01:43:20 74° SSE 01:46:33 10° ENE
Cosmos 1758 Rocket 4.0 01:39:42 10° SSW 01:43:53 46° WNW 01:48:07 10° N
STARLINK-1208 4.4 01:41:15 10° W 01:44:56 31° SW 01:48:35 10° SSE
H-2A R/B 2.1 01:41:08 10° SSE 01:45:27 90° WSW 01:49:56 10° NNW
Meteor 1-27 4.3 01:40:36 10° NNW 01:46:13 89° WSW 01:51:47 10° S
STARLINK-1225 3.6 01:43:23 10° WNW 01:47:31 72° SSW 01:51:39 10° ESE
Cosmos 1898 Rocket 4.2 01:43:50 10° NW 01:48:40 35° WSW 01:53:26 10° SSW
STARLINK-1271 4.5 01:46:17 10° W 01:49:54 29° SW 01:53:29 10° SSE
Cosmos 2298 Rocket 4.2 01:45:32 10° NNW 01:50:52 82° ENE 01:56:11 10° SSE
Lacrosse 4 Rocket 1.5 01:46:48 10° NW 01:51:08 63° WSW 01:55:20 10° SSE
